Location: Newark
(58.8333°N, 23.5833°E)
Time: 21:30:33
(UTC+00:00)

A-11 Canister half - Pass Details

Date: 22 November 2019
Orbit: 1515 x 1685 km, 47.2° (Epoch: 13 December)

Event Time Altitude Azimuth Distance (km) Brightness Sun altitude
Rises 21:05:07 0° 277° (W) 4,942 11.9 -49.5°
Reaches altitude 10° 21:08:54 10° 267° (W) 3,953 11.2 -49.7°
Enters shadow 21:10:02 13° 262° (W) 3,687 11.0 -49.8°
Maximum altitude 21:16:50 27° 215° (SW) 2,807 - -50.1°
Drops below altitude 10° 21:24:41 10° 163° (SSE) 3,899 - -50.4°
Sets 21:28:24 0° 152° (SSE) 4,862 - -50.6°
